[[{"header":{"parameterUnit":"m.s-1","parameterCategory":1,"la1":30.2992,"la2":30.254,"lo1":-89.0895,"lo2":-89.0443,"dy":0.0025,"dx":0.0025,"nx":19,"ny":19,"refTime":"2026-05-24T09:00:00:Z","depth":0,"parameterNumber":2,"parameterNumberName":"U-component_of_WINDS"},"data":[0,0,0,4.2235,4.2239,4.2415,4.2416,4.2647,4.2649,0,0,0,0,0,0,0,0,0,0,0,4.2189,4.2191,4.2235,4.2239,4.2415,4.2416,4.2646,4.2649,0,0,0,0,0,0,0,0,0,0,0,4.2188,4.219,4.2192,4.224,4.2415,4.2416,4.2646,4.251,0,0,0,0,0,0,0,0,0,0,4.2338,4.2303,4.219,4.2193,4.2241,4.2415,4.2416,4.2504,4.2519,4.257,0,4.2619,0,4.2638,4.2665,4.2665,0,0,0,4.2234,4.229,4.2332,4.2193,4.2243,4.2415,4.2334,4.2512,4.2529,4.259,4.2622,4.2631,4.2641,4.2666,4.2667,4.2981,4.2983,0,0,4.2225,4.2224,4.232,4.2343,4.2319,4.2329,4.234,4.2522,4.2557,4.2623,4.2636,4.2645,4.2668,4.267,4.2979,4.2981,0,0,0,4.22,4.2217,4.2254,4.2334,4.2365,4.2334,4.2347,4.2549,4.2561,4.2638,4.2648,4.2669,4.2672,4.2978,4.298,4.3063,0,0,0,4.2194,4.2203,4.225,4.2252,4.2362,4.246,4.237,4.2548,4.2569,4.2647,4.2669,4.2674,4.2976,4.2979,4.3057,4.3103,0,0,0,4.2175,4.2201,4.2228,4.2251,4.2327,4.2457,4.248,4.2553,4.2575,4.2666,4.2675,4.2975,4.2978,4.3051,4.3094,4.3185,0,0,0,4.2155,4.2301,4.223,4.2395,4.2326,4.2507,4.2478,4.2613,4.2701,4.267,4.2976,4.298,4.305,4.3089,4.3179,4.3262,4.3296,0,0,4.2339,4.2323,4.242,4.2361,4.2556,4.248,4.2685,4.2767,4.2775,4.2911,4.2919,4.3059,4.3094,4.3184,4.3488,4.3515,0,0,0,4.2478,4.2548,4.2599,4.2683,4.2747,4.2805,4.2854,4.2883,4.2998,4.2846,4.3116,4.3136,4.3189,4.3229,4.3252,4.3297,4.2998,4.2998,4.2997,4.2739,4.2741,4.2901,4.2923,4.3003,4.305,4.3114,4.316,4.3141,4.3204,4.3245,4.3429,4.3476,4.3493,4.354,4.3288,4.3288,4.3289,4.3289,4.3008,4.3107,4.3072,4.3216,4.3215,4.3335,4.3383,4.3363,4.3473,4.3399,4.3446,4.3367,4.3523,4.3564,4.3295,4.3294,4.3293,4.3293,4.3292,4.3181,4.3228,4.3259,4.3376,4.3465,4.3481,4.3586,4.3582,4.3579,4.3624,4.3666,4.3665,4.3663,4.3644,4.3645,4.3645,4.3646,4.3646,4.3647,4.3348,4.338,4.3471,4.3547,4.3597,4.3663,4.3706,4.3755,4.3807,4.3795,4.3796,4.3768,4.3538,4.3481,4.3657,4.3655,4.3654,4.3653,4.3652,4.3624,4.3559,4.3699,4.3749,4.3836,4.3922,4.3913,4.4011,4.405,4.4101,4.4061,4.3892,4.3876,4.3858,4.381,4.4061,4.4061,4.4061,4.4061,4.377,4.376,4.39,4.3979,4.4056,4.406,4.4214,4.4247,4.427,4.4294,4.4256,4.4192,4.4173,4.4168,4.4143,4.4098,4.4417,4.4418,4.4418,4.3939,4.3935,4.407,4.4092,4.4157,4.4212,4.4356,4.4446,4.4459,4.4432,4.4311,4.4296,4.4193,4.4159,4.4133,4.4094,4.4013,0,0]},{"header":{"parameterUnit":"m.s-1","parameterCategory":1,"la1":30.2992,"la2":30.254,"lo1":-89.0895,"lo2":-89.0443,"dy":0.0025,"dx":0.0025,"nx":19,"ny":19,"refTime":"2026-05-24T09:00:00:Z","depth":0,"parameterNumber":3,"parameterNumberName":"V-component_of_WINDS"},"data":[0,0,0,0.9243,0.9244,0.9278,0.9278,0.9319,0.9319,0,0,0,0,0,0,0,0,0,0,0,0.9228,0.9228,0.9243,0.9244,0.9278,0.9278,0.9319,0.9319,0,0,0,0,0,0,0,0,0,0,0,0.9228,0.9228,0.9228,0.9244,0.9278,0.9278,0.9318,0.9295,0,0,0,0,0,0,0,0,0,0,0.9263,0.9242,0.9228,0.9228,0.9244,0.9277,0.9278,0.9294,0.9296,0.9301,0,0.9301,0,0.931,0.9321,0.9321,0,0,0,0.9249,0.924,0.9254,0.9228,0.9244,0.9277,0.9264,0.9295,0.9298,0.9304,0.9301,0.9303,0.9311,0.9321,0.9322,0.9329,0.9328,0,0,0.9247,0.9232,0.9252,0.9255,0.9246,0.9263,0.9265,0.9297,0.9294,0.9302,0.9304,0.9312,0.9322,0.9322,0.9329,0.9328,0,0,0,0.9238,0.923,0.9243,0.9253,0.926,0.9263,0.9266,0.9292,0.9298,0.9305,0.9312,0.9322,0.9322,0.9329,0.9329,0.9304,0,0,0,0.9237,0.9225,0.9242,0.9233,0.9259,0.9276,0.926,0.9296,0.93,0.9312,0.9322,0.9323,0.9329,0.9329,0.9305,0.9294,0,0,0,0.9228,0.9224,0.9227,0.9232,0.9246,0.9275,0.9283,0.9297,0.9304,0.9321,0.9323,0.9329,0.9329,0.9306,0.9296,0.9292,0,0,0,0.9213,0.9204,0.9226,0.922,0.9246,0.9259,0.9283,0.9294,0.9306,0.9322,0.9329,0.9329,0.9306,0.9297,0.9293,0.9286,0.9281,0,0,0.9193,0.9201,0.9199,0.9219,0.9224,0.9255,0.9258,0.9284,0.9301,0.932,0.932,0.9304,0.9296,0.9292,0.9261,0.9257,0,0,0,0.9187,0.9185,0.919,0.92,0.9219,0.9236,0.9263,0.9274,0.929,0.9306,0.9303,0.9298,0.9297,0.9294,0.9291,0.9292,0.9327,0.9327,0.9327,0.9136,0.9158,0.9156,0.9183,0.9193,0.9222,0.9234,0.9254,0.9273,0.9272,0.9277,0.9255,0.9251,0.9249,0.9249,0.9276,0.9275,0.9275,0.9275,0.9109,0.911,0.9137,0.9145,0.917,0.9178,0.9209,0.9223,0.9237,0.9252,0.9252,0.9266,0.9244,0.9246,0.9274,0.9274,0.9274,0.9274,0.9274,0.9077,0.9081,0.9094,0.9112,0.9126,0.9155,0.9167,0.9191,0.9213,0.9213,0.9222,0.9222,0.9226,0.9216,0.9216,0.9216,0.9215,0.9215,0.9215,0.9038,0.9053,0.9059,0.9081,0.9092,0.911,0.9144,0.9157,0.9178,0.9194,0.9194,0.9215,0.9237,0.9242,0.9214,0.9214,0.9215,0.9215,0.9215,0.9001,0.9013,0.9022,0.9033,0.9063,0.9077,0.9107,0.9133,0.9147,0.9154,0.9176,0.9189,0.9199,0.9202,0.9206,0.917,0.917,0.917,0.917,0.8973,0.8981,0.8996,0.9013,0.9033,0.9062,0.9076,0.9105,0.9137,0.9149,0.9158,0.9166,0.9168,0.9177,0.9181,0.9185,0.9145,0.9145,0.9145,0.8952,0.8963,0.8967,0.8996,0.9023,0.9047,0.9062,0.9084,0.9124,0.9144,0.9159,0.916,0.9174,0.9176,0.9194,0.9198,0.9207,0,0]}]]